Location: Newark
(40.4667°N, 5.6000°W)
Time: 23:58:05
(UTC+00:00)

N. Korean satellite - Visible Passes

Search period start: 20 October 2019 00:00
Search period end: 30 October 2019 00:00
Orbit: 455 x 508 km, 97.2° (Epoch: 20 October)

Date Brightness Start Highest point End Pass type
(mag) Time Alt. Az. Time Alt. Az. Time Alt. Az.
20 Oct 10.2 18:34:20 10° WSW 18:35:56 13° W 18:37:34 10° WNW visible
21 Oct 7.9 05:58:48 10° NNE 06:02:19 46° E 06:05:51 10° S visible
21 Oct 9.1 18:07:32 10° SSW 18:10:28 26° W 18:13:27 10° NW visible
22 Oct 9.5 05:34:01 10° NE 05:36:56 22° E 05:39:50 10° SSE visible
23 Oct 10.5 05:10:26 10° ENE 05:11:27 11° E 05:12:28 10° ESE visible
24 Oct 9.9 18:25:49 10° SW 18:28:01 16° W 18:30:15 10° NW visible
25 Oct 8.4 05:51:03 10° NNE 05:54:28 36° E 05:57:54 10° SSE visible
25 Oct 8.5 17:59:26 10° SSW 18:02:34 33° W 18:05:45 10° NNW visible
26 Oct 9.8 05:26:26 10° NE 05:29:02 18° E 05:31:38 10° SE visible
28 Oct 7.2 06:08:16 10° NNE 06:11:56 64° E 06:15:36 10° S visible
28 Oct 9.6 18:17:26 10° SW 18:20:03 20° W 18:22:43 10° NW visible
29 Oct 8.9 05:43:17 10° NE 05:46:34 29° E 05:49:50 10° SSE visible
29 Oct 7.9 17:51:19 10° S 17:54:37 43° W 17:57:59 10° NNW visible
